Location: Unspecified
(0.0000°N, 0.0000°E)
Time: 14:43:51
(UTC+00:00)

N. Korean satellite - Visible Passes

Search period start: 22 July 2017 00:00
Search period end: 01 August 2017 00:00
Orbit: 460 x 518 km, 97.2° (Epoch: 21 July)

Date Brightness Start Highest point End Pass type
(mag) Time Alt. Az. Time Alt. Az. Time Alt. Az.
23 Jul 9.5 19:21:38 10° SW 19:23:38 15° WSW 19:25:37 10° WNW visible
24 Jul 8.2 18:57:30 10° SSW 19:00:44 34° W 19:03:54 10° NW visible
25 Jul 6.5 18:34:17 10° SSE 18:37:48 87° E 18:41:14 10° N visible
27 Jul 9.6 19:23:24 10° SW 19:25:10 13° WSW 19:26:55 10° WNW visible
28 Jul 8.4 18:59:06 10° SSW 19:02:14 31° WSW 19:05:20 10° NW visible
29 Jul 6.5 18:35:48 10° S 18:39:17 86° WSW 18:42:43 10° NNW visible
31 Jul 9.6 19:25:08 10° SW 19:26:38 12° WSW 19:28:09 10° WNW visible
